Visalia, CA

11:44 AM PST on February 23, 2017 (GMT -0800)
Visalia Municipal

Weather History for KVIS - August, 2013

Change the Weather History Date:

Tuesday, August 20, 2013

  Actual Average Record
Temperature  
Mean Temperature 84 °F -  
Max Temperature 100 °F 91 °F 111 °F (1950)
Min Temperature 69 °F 61 °F 37 °F (2010)
Cooling Degree Days 20    
Growing Degree Days 34 (Base 50)    
Moisture  
Dew Point 57 °F    
Average Humidity 42    
Maximum Humidity 65    
Minimum Humidity 21    
Precipitation  
Precipitation 0.00 in - - ()
Sea Level Pressure  
Sea Level Pressure 29.77 in    
Wind  
Wind Speed 5 mph (South)    
Max Wind Speed 10 mph    
Max Gust Speed -    
Visibility 10 miles    
Events      
Averages and records for this station are not official NWS values.
T = Trace of Precipitation, MM = Missing Value Source: NWS Daily Summary

Daily Weather History Graph

Daily Weather History Graph

Search for Another Location

Airport or City:

Trip Planner

Search our weather history database for the weather conditions in past years. The results will help you decide how hot, cold, wet, or windy it might be!

Date:

Astronomy

Aug. 20, 2013 Rise Set
Actual Time 6:19 AM PDT 7:41 PM PDT
Civil Twilight 5:52 AM PDT 8:08 PM PDT
Nautical Twilight 5:20 AM PDT 8:40 PM PDT
Astronomical Twilight 4:46 AM PDT 9:14 PM PDT
Moon 7:18 PM PDT (8/20) 5:54 AM PDT (8/20)
Length of Visible Light 14h 15m
Length of Day
13h 21m
Full, 100% of the Moon is Illuminated
Aug 20
Full
Aug 20
Full
Aug 28
Last Quarter
Sep 5
New
Sep 12
First Quarter

Hourly Weather History & Observations

Time (PDT) Temp. Heat Index Dew Point Humidity Pressure Visibility Wind Dir Wind Speed Gust Speed Precip Events Conditions
12:15 AM 78.8 °F - 62.6 °F 57% 29.77 in 10.0 mi NE 4.6 mph - N/A   Clear
12:35 AM 75.2 °F - 62.6 °F 65% 29.77 in 10.0 mi ENE 6.9 mph - N/A   Clear
12:55 AM 77.0 °F - 62.6 °F 61% 29.77 in 10.0 mi East 3.5 mph - N/A   Clear
1:15 AM 78.8 °F - 60.8 °F 54% 29.77 in 10.0 mi ESE 6.9 mph - N/A   Clear
1:35 AM 77.0 °F - 60.8 °F 57% 29.77 in 10.0 mi SSE 8.1 mph - N/A   Clear
1:55 AM 77.0 °F - 59.0 °F 54% 29.77 in 10.0 mi ESE 9.2 mph - N/A   Clear
2:15 AM 77.0 °F - 57.2 °F 50% 29.77 in 10.0 mi SE 10.4 mph - N/A   Clear
2:35 AM 75.2 °F - 55.4 °F 50% 29.77 in 10.0 mi SE 9.2 mph - N/A   Clear
2:55 AM 75.2 °F - 55.4 °F 50% 29.77 in 10.0 mi ESE 8.1 mph - N/A   Clear
3:15 AM 75.2 °F - 53.6 °F 47% 29.78 in 10.0 mi SSW 3.5 mph - N/A   Clear
3:35 AM 73.4 °F - 55.4 °F 53% 29.78 in 10.0 mi Calm Calm - N/A   Clear
3:55 AM 73.4 °F - 55.4 °F 53% 29.78 in 10.0 mi ESE 3.5 mph - N/A   Clear
4:15 AM 73.4 °F - 55.4 °F 53% 29.78 in 10.0 mi Calm Calm - N/A   Clear
4:35 AM 71.6 °F - 55.4 °F 57% 29.78 in 10.0 mi Calm Calm - N/A   Clear
4:55 AM 71.6 °F - 55.4 °F 57% 29.78 in 10.0 mi Calm Calm - N/A   Clear
5:15 AM 69.8 °F - 53.6 °F 56% 29.78 in 10.0 mi ESE 5.8 mph - N/A   Clear
5:35 AM 71.6 °F - 53.6 °F 53% 29.79 in 10.0 mi ESE 6.9 mph - N/A   Clear
5:55 AM 71.6 °F - 51.8 °F 50% 29.80 in 10.0 mi ESE 6.9 mph - N/A   Clear
6:15 AM 69.8 °F - 51.8 °F 53% 29.80 in 10.0 mi SE 6.9 mph - N/A   Clear
6:35 AM 69.8 °F - 51.8 °F 53% 29.80 in 10.0 mi ESE 6.9 mph - N/A   Clear
6:55 AM 71.6 °F - 50.0 °F 46% 29.80 in 10.0 mi ESE 6.9 mph - N/A   Clear
7:15 AM 71.6 °F - 48.2 °F 43% 29.81 in 10.0 mi ESE 4.6 mph - N/A   Clear
7:35 AM 73.4 °F - 50.0 °F 44% 29.81 in 10.0 mi ESE 6.9 mph - N/A   Clear
7:55 AM 75.2 °F - 48.2 °F 38% 29.82 in 10.0 mi ESE 6.9 mph - N/A   Clear
8:15 AM 77.0 °F - 48.2 °F 36% 29.82 in 10.0 mi SE 6.9 mph - N/A   Clear
8:35 AM 78.8 °F - 48.2 °F 34% 29.82 in 10.0 mi SSE 6.9 mph - N/A   Clear
8:55 AM 78.8 °F - 51.8 °F 39% 29.83 in 10.0 mi SSE 4.6 mph - N/A   Clear
9:15 AM 78.8 °F - 51.8 °F 39% 29.83 in 10.0 mi South 4.6 mph - N/A   Clear
9:35 AM 80.6 °F 80.3 °F 53.6 °F 39% 29.83 in 10.0 mi South 3.5 mph - N/A   Clear
9:55 AM 82.4 °F 81.7 °F 55.4 °F 39% 29.83 in 10.0 mi SSE 4.6 mph - N/A   Clear
10:15 AM 82.4 °F 81.7 °F 55.4 °F 39% 29.83 in 10.0 mi South 5.8 mph - N/A   Clear
10:35 AM 84.2 °F 83.5 °F 57.2 °F 40% 29.83 in 10.0 mi South 4.6 mph - N/A   Clear
10:55 AM 84.2 °F 83.5 °F 57.2 °F 40% 29.83 in 10.0 mi SSW 4.6 mph - N/A   Clear
11:15 AM 84.2 °F 84.4 °F 60.8 °F 45% 29.83 in 10.0 mi South 6.9 mph - N/A   Clear
11:35 AM 87.8 °F 88.5 °F 62.6 °F 43% 29.82 in 10.0 mi SW 6.9 mph - N/A   Clear
11:55 AM 87.8 °F 88.5 °F 62.6 °F 43% 29.82 in 10.0 mi SSW 5.8 mph - N/A   Clear
12:15 PM 89.6 °F 91.1 °F 64.4 °F 43% 29.82 in 10.0 mi South 3.5 mph - N/A   Clear
12:35 PM 89.6 °F 91.1 °F 64.4 °F 43% 29.81 in 10.0 mi SSW 3.5 mph - N/A   Clear
12:55 PM 91.4 °F 93.2 °F 64.4 °F 41% 29.80 in 10.0 mi South 5.8 mph - N/A   Clear
1:15 PM 93.2 °F 94.1 °F 62.6 °F 36% 29.79 in 10.0 mi Calm Calm - N/A   Clear
1:35 PM 93.2 °F 94.1 °F 62.6 °F 36% 29.79 in 10.0 mi SSW 3.5 mph - N/A   Clear
1:55 PM 95.0 °F 96.0 °F 62.6 °F 34% 29.78 in 10.0 mi South 4.6 mph - N/A   Clear
2:15 PM 95.0 °F 96.0 °F 62.6 °F 34% 29.77 in 10.0 mi South 3.5 mph - N/A   Clear
2:35 PM 96.8 °F 98.0 °F 62.6 °F 32% 29.76 in 10.0 mi South 4.6 mph - N/A   Clear
2:55 PM 96.8 °F 98.0 °F 62.6 °F 32% 29.75 in 10.0 mi Calm Calm - N/A   Clear
3:15 PM 96.8 °F 97.1 °F 60.8 °F 30% 29.74 in 10.0 mi SSW 3.5 mph - N/A   Clear
3:35 PM 96.8 °F 97.1 °F 60.8 °F 30% 29.73 in 10.0 mi WNW 4.6 mph - N/A   Clear
3:55 PM 98.6 °F 99.4 °F 60.8 °F 29% 29.73 in 10.0 mi West 6.9 mph - N/A   Clear
4:15 PM 98.6 °F 99.4 °F 60.8 °F 29% 29.72 in 10.0 mi WNW 4.6 mph - N/A   Clear
4:35 PM 98.6 °F 98.5 °F 59.0 °F 27% 29.72 in 10.0 mi West 4.6 mph - N/A   Clear
4:55 PM 98.6 °F 97.6 °F 57.2 °F 25% 29.72 in 10.0 mi West 6.9 mph - N/A   Clear
5:15 PM 98.6 °F 98.5 °F 59.0 °F 27% 29.71 in 10.0 mi WNW 6.9 mph - N/A   Clear
5:35 PM 98.6 °F 99.4 °F 60.8 °F 29% 29.71 in 10.0 mi North 4.6 mph - N/A   Clear
5:55 PM 98.6 °F 97.6 °F 57.2 °F 25% 29.71 in 10.0 mi West 3.5 mph - N/A   Clear
6:15 PM 100.4 °F 98.4 °F 53.6 °F 21% 29.71 in 10.0 mi West 4.6 mph - N/A   Clear
6:35 PM 98.6 °F 97.6 °F 57.2 °F 25% 29.71 in 10.0 mi NNW 6.9 mph - N/A   Clear
6:55 PM 98.6 °F 96.4 °F 53.6 °F 22% 29.71 in 10.0 mi North 4.6 mph - N/A   Clear
7:15 PM 96.8 °F 95.1 °F 55.4 °F 25% 29.71 in 10.0 mi North 3.5 mph - N/A   Clear
7:35 PM 93.2 °F 91.9 °F 57.2 °F 30% 29.72 in 10.0 mi Calm Calm - N/A   Clear
7:55 PM 91.4 °F 90.7 °F 59.0 °F 34% 29.72 in 10.0 mi Calm Calm - N/A   Clear
8:15 PM 89.6 °F 89.5 °F 60.8 °F 38% 29.73 in 10.0 mi Calm Calm - N/A   Clear
8:35 PM 84.2 °F 85.0 °F 62.6 °F 48% 29.73 in 10.0 mi Calm Calm - N/A   Clear
8:55 PM 82.4 °F 83.9 °F 64.4 °F 54% 29.73 in 10.0 mi SW 5.8 mph - N/A   Clear
9:35 PM 84.2 °F 82.8 °F 53.6 °F 35% 29.75 in 10.0 mi West 5.8 mph - N/A   Clear
9:55 PM 80.6 °F 80.3 °F 53.6 °F 39% 29.77 in 10.0 mi Calm Calm - N/A   Clear
10:15 PM 80.6 °F 80.3 °F 53.6 °F 39% 29.77 in 10.0 mi WSW 5.8 mph - N/A   Clear
10:35 PM 78.8 °F - 51.8 °F 39% 29.77 in 10.0 mi SW 5.8 mph - N/A   Clear
10:55 PM 78.8 °F - 51.8 °F 39% 29.77 in 10.0 mi West 4.6 mph - N/A   Clear
11:15 PM 78.8 °F - 53.6 °F 42% 29.78 in 10.0 mi WNW 4.6 mph - N/A   Clear
11:35 PM 77.0 °F - 59.0 °F 54% 29.80 in 10.0 mi Calm Calm - N/A   Clear
11:55 PM 75.2 °F - 60.8 °F 61% 29.81 in 10.0 mi Calm Calm - N/A   Clear